GW5339 Weather Reports


time (UTC)temp
F
wind
direction
speed
knots
gust
knots
rain 1hr
in
rain 24hr
in
rain mn
in
humidity
%
barometer
mb
20260505114518 44 13 0.0 0.0 0.00 0.00 0.00 88 1015.9
20260505113024 43 13 0.0 0.0 0.00 0.00 0.00 88 1015.8
20260505111523 42 13 0.0 0.0 0.00 0.00 0.00 88 1015.8
20260505101547 43 13 0.0 0.0 0.00 0.00 0.00 88 1015.6
20260505100052 43 13 0.0 0.0 0.00 0.00 0.00 87 1015.6
20260505094513 43 13 0.0 0.9 0.00 0.00 0.00 86 1015.6
20260505093023 44 13 0.0 0.0 0.00 0.00 0.00 86 1015.5
20260505091523 44 13 0.0 0.0 0.00 0.00 0.00 86 1015.4
20260505090026 45 13 0.0 0.9 0.00 0.00 0.00 86 1015.3
20260505084508 44 20 0.0 0.0 0.00 0.00 0.00 86 1015.1
20260505083014 44 240 0.0 0.0 0.00 0.00 0.00 85 1015.0
20260505081520 45 171 0.0 0.0 0.00 0.00 0.00 84 1014.8
20260505080023 46 171 0.0 0.0 0.00 0.00 0.00 84 1014.8
20260505074525 46 171 0.0 0.9 0.00 0.00 0.00 84 1014.5
20260505073027 45 171 0.0 0.9 0.00 0.00 0.00 86 1014.5
20260505071514 46 148 0.9 1.7 0.00 0.00 0.00 82 1014.4
20260505070020 47 44 0.0 0.9 0.00 0.00 0.00 81 1014.3
20260505064524 48 44 0.0 0.0 0.00 0.00 0.00 81 1014.4
20260505063026 49 44 0.0 0.0 0.00 0.00 0.00 78 1014.5
20260505061519 51 44 0.0 0.0 0.00 0.00 0.00 75 1014.4
20260505060014 52 44 0.0 0.0 0.00 0.00 0.00 72 1014.6
20260505054523 53 44 0.0 0.9 0.00 0.00 0.00 70 1014.6
20260505053036 53 44 0.0 0.9 0.00 0.00 0.00 70 1014.5
20260505051538 54 44 0.0 0.0 0.00 0.00 0.00 70 1014.4
20260505041526 51 44 0.0 0.0 0.00 0.00 0.00 75 1014.4
20260505040030 52 44 0.0 0.0 0.00 0.00 0.00 74 1014.6
20260505034514 53 44 0.0 0.0 0.00 0.00 0.00 71 1014.7
20260505033017 54 44 0.0 0.0 0.00 0.00 0.00 70 1014.7
20260505031531 55 281 0.0 0.0 0.00 0.00 0.00 67 1014.9
20260505030026 56 280 0.0 0.0 0.00 0.00 0.00 66 1014.9
20260505024527 57 281 0.0 0.0 0.00 0.00 0.00 64 1015.0
20260505023020 58 281 0.0 0.0 0.00 0.00 0.00 62 1014.9
20260505021519 59 281 0.0 0.0 0.00 0.00 0.00 58 1014.8
20260505020030 60 281 0.0 0.0 0.00 0.00 0.00 53 1014.7
20260505014523 61 256 0.0 0.0 0.00 0.00 0.00 53 1014.6
20260505013030 62 256 0.0 0.0 0.00 0.00 0.00 53 1014.4
20260505011518 63 256 0.0 0.0 0.00 0.00 0.00 50 1014.3
20260505010029 65 256 0.0 0.0 0.00 0.00 0.00 47 1014.1
20260505004522 68 236 0.9 1.7 0.00 0.00 0.00 41 1013.9
20260505003026 68 251 0.9 3.5 0.00 0.00 0.00 40 1013.8
20260505001530 69 245 0.9 1.7 0.00 0.00 0.00 39 1013.7
20260505000023 70 246 0.9 2.6 0.00 0.00 0.00 38 1013.6
20260504234521 71 251 0.9 2.6 0.00 0.00 0.00 39 1013.5
20260504233025 72 255 0.9 2.6 0.00 0.00 0.00 37 1013.3
20260504231527 72 256 1.7 5.2 0.00 0.00 0.00 36 1013.2
20260504230039 73 250 3.5 8.7 0.00 0.00 0.00 34 1013.2
20260504224517 73 229 2.6 7.0 0.00 0.00 0.00 34 1013.2
20260504223020 73 264 1.7 4.3 0.00 0.00 0.00 35 1013.2
20260504221538 74 253 2.6 4.3 0.00 0.00 0.00 33 1013.1
20260504220028 74 275 0.9 2.6 0.00 0.00 0.00 34 1013.0
20260504214527 74 223 3.5 9.6 0.00 0.00 0.00 35 1013.1
20260504213018 74 233 2.6 8.7 0.00 0.00 0.00 35 1013.1
20260504211530 75 219 1.7 4.3 0.00 0.00 0.00 36 1013.1
20260504210026 75 243 3.5 8.7 0.00 0.00 0.00 35 1013.1
20260504204511 75 173 0.9 7.0 0.00 0.00 0.00 35 1013.2
20260504203013 75 223 3.5 7.0 0.00 0.00 0.00 35 1013.4
20260504201524 74 266 3.5 6.1 0.00 0.00 0.00 36 1013.5
20260504200024 74 233 3.5 5.2 0.00 0.00 0.00 36 1013.7
20260504194537 74 222 2.6 4.3 0.00 0.00 0.00 36 1013.9
20260504193014 74 255 0.9 5.2 0.00 0.00 0.00 36 1014.1
20260504191530 74 279 1.7 2.6 0.00 0.00 0.00 36 1014.4
20260504190023 74 259 1.7 6.1 0.00 0.00 0.00 37 1014.5
20260504184527 74 278 0.9 7.0 0.00 0.00 0.00 35 1014.7
20260504183028 75 217 0.9 5.2 0.00 0.00 0.00 36 1014.7
20260504181517 75 259 1.7 7.0 0.00 0.00 0.00 36 1015.0
20260504180019 76 280 2.6 5.2 0.00 0.00 0.00 34 1015.1
20260504174520 75 262 1.7 6.1 0.00 0.00 0.00 37 1015.2
20260504173030 74 274 0.9 6.1 0.00 0.00 0.00 36 1015.3
20260504171533 75 251 0.9 4.3 0.00 0.00 0.00 36 1015.4